Location: Unspecified
(41.5000°N, 0.0000°E)
Time: 03:07:28
(UTC+00:00)

Courier 1B Rocket - Pass Details

Date: 28 June 2019
Orbit: 920 x 1202 km, 28.2° (Epoch: 21 July)

Event Time Altitude Azimuth Distance (km) Brightness Sun altitude
Rises 05:10:10 0° 255° (WSW) 3,903 7.5 6.0°
Reaches altitude 10° 05:13:37 10° 242° (WSW) 2,893 6.9 6.6°
Maximum altitude 05:18:51 23° 193° (SSW) 2,041 6.4 7.5°
Drops below altitude 10° 05:23:50 10° 144° (SE) 2,736 7.6 8.3°
Sets 05:27:00 0° 130° (SE) 3,640 8.4 8.8°
